[[{"header":{"parameterUnit":"m.s-1","parameterCategory":1,"la1":30.2992,"la2":30.254,"lo1":-89.0895,"lo2":-89.0443,"dy":0.0025,"dx":0.0025,"nx":19,"ny":19,"refTime":"2026-04-21T09:00:00:Z","depth":0,"parameterNumber":2,"parameterNumberName":"U-component_of_WINDS"},"data":[0,0,0,-2.1991,-2.1992,-2.2005,-2.2005,-2.2045,-2.2045,0,0,0,0,0,0,0,0,0,0,0,-2.2001,-2.2001,-2.1991,-2.1992,-2.2005,-2.2005,-2.2045,-2.2045,0,0,0,0,0,0,0,0,0,0,0,-2.2,-2.2001,-2.2002,-2.1992,-2.2005,-2.2005,-2.2045,-2.2027,0,0,0,0,0,0,0,0,0,0,-2.201,-2.2032,-2.2001,-2.2002,-2.1992,-2.2005,-2.2005,-2.2025,-2.2028,-2.2048,0,-2.207,0,-2.2058,-2.2049,-2.205,0,0,0,-2.1982,-2.203,-2.2021,-2.2002,-2.1993,-2.2005,-2.1997,-2.2027,-2.2029,-2.2052,-2.207,-2.2071,-2.2059,-2.205,-2.205,-2.2199,-2.22,0,0,-2.1982,-2.2011,-2.2019,-2.2023,-2.2022,-2.1996,-2.1997,-2.2028,-2.205,-2.207,-2.2071,-2.206,-2.205,-2.2051,-2.2198,-2.2199,0,0,0,-2.1986,-2.2011,-2.2001,-2.2022,-2.2023,-2.1997,-2.1998,-2.2049,-2.2043,-2.2072,-2.206,-2.2051,-2.2051,-2.2197,-2.2198,-2.2283,0,0,0,-2.1985,-2.2013,-2.2001,-2.2019,-2.2023,-2.2036,-2.2019,-2.2041,-2.2043,-2.206,-2.2051,-2.2052,-2.2195,-2.2198,-2.2278,-2.2319,0,0,0,-2.1995,-2.2014,-2.202,-2.202,-2.2027,-2.2035,-2.2031,-2.2041,-2.2037,-2.205,-2.2052,-2.2194,-2.2197,-2.2273,-2.2311,-2.2366,0,0,0,-2.2015,-2.2096,-2.2022,-2.2108,-2.2027,-2.2087,-2.203,-2.2073,-2.2094,-2.2051,-2.2195,-2.2198,-2.2272,-2.2306,-2.2362,-2.2418,-2.2444,0,0,-2.2134,-2.2112,-2.216,-2.2094,-2.2174,-2.2082,-2.2175,-2.2168,-2.2143,-2.2182,-2.2185,-2.228,-2.2311,-2.2365,-2.258,-2.2601,0,0,0,-2.2208,-2.2243,-2.2258,-2.2279,-2.2274,-2.2273,-2.2248,-2.2245,-2.2276,-2.2168,-2.2313,-2.2331,-2.2362,-2.2387,-2.2405,-2.243,-2.2211,-2.2211,-2.2211,-2.2419,-2.2381,-2.2458,-2.2423,-2.2443,-2.2416,-2.2429,-2.2421,-2.2378,-2.2412,-2.2424,-2.2559,-2.259,-2.2603,-2.263,-2.245,-2.2451,-2.2451,-2.2451,-2.259,-2.2634,-2.2573,-2.2626,-2.2586,-2.2631,-2.2607,-2.2575,-2.2611,-2.2547,-2.2573,-2.2507,-2.2628,-2.2649,-2.2457,-2.2456,-2.2456,-2.2455,-2.2455,-2.2725,-2.2739,-2.2733,-2.2758,-2.2782,-2.2742,-2.2779,-2.2741,-2.2706,-2.2731,-2.2739,-2.2738,-2.2732,-2.2737,-2.2738,-2.2738,-2.2739,-2.2739,-2.2739,-2.2868,-2.2858,-2.2893,-2.2893,-2.2901,-2.2906,-2.2878,-2.2885,-2.2883,-2.2853,-2.2853,-2.2807,-2.2646,-2.2607,-2.2747,-2.2745,-2.2744,-2.2744,-2.2743,-2.3057,-2.3008,-2.3063,-2.307,-2.3067,-2.3093,-2.3043,-2.306,-2.306,-2.3079,-2.3027,-2.2914,-2.2889,-2.2874,-2.2842,-2.3034,-2.3034,-2.3034,-2.3034,-2.3172,-2.3155,-2.3201,-2.3216,-2.3225,-2.3185,-2.3249,-2.3227,-2.3197,-2.3195,-2.3161,-2.3114,-2.3101,-2.3084,-2.3065,-2.3034,-2.3271,-2.3271,-2.3271,-2.3287,-2.3268,-2.3329,-2.3298,-2.3292,-2.3288,-2.3346,-2.3365,-2.3321,-2.328,-2.3192,-2.3182,-2.3106,-2.3083,-2.3042,-2.3013,-2.2956,0,0]},{"header":{"parameterUnit":"m.s-1","parameterCategory":1,"la1":30.2992,"la2":30.254,"lo1":-89.0895,"lo2":-89.0443,"dy":0.0025,"dx":0.0025,"nx":19,"ny":19,"refTime":"2026-04-21T09:00:00:Z","depth":0,"parameterNumber":3,"parameterNumberName":"V-component_of_WINDS"},"data":[0,0,0,2.2704,2.2705,2.273,2.273,2.2773,2.2774,0,0,0,0,0,0,0,0,0,0,0,2.2705,2.2706,2.2704,2.2705,2.273,2.273,2.2773,2.2774,0,0,0,0,0,0,0,0,0,0,0,2.2705,2.2705,2.2706,2.2705,2.273,2.273,2.2773,2.275,0,0,0,0,0,0,0,0,0,0,2.2724,2.2733,2.2705,2.2706,2.2705,2.273,2.273,2.2749,2.2751,2.2767,0,2.2784,0,2.278,2.2777,2.2778,0,0,0,2.2699,2.2731,2.273,2.2706,2.2706,2.273,2.2717,2.275,2.2753,2.2771,2.2785,2.2786,2.2781,2.2778,2.2778,2.2891,2.2892,0,0,2.2697,2.2714,2.2728,2.2732,2.273,2.2716,2.2718,2.2752,2.2768,2.2785,2.2787,2.2781,2.2778,2.2779,2.289,2.2891,0,0,0,2.2698,2.2713,2.2711,2.2731,2.2734,2.2717,2.2719,2.2766,2.2764,2.2787,2.2782,2.2778,2.2779,2.2889,2.289,2.2945,0,0,0,2.2697,2.2713,2.2711,2.2721,2.2734,2.2751,2.2733,2.2762,2.2765,2.2782,2.2778,2.278,2.2888,2.289,2.2942,2.2968,0,0,0,2.2701,2.2714,2.272,2.2722,2.2733,2.275,2.275,2.2762,2.2762,2.2778,2.278,2.2888,2.2889,2.2939,2.2963,2.3001,0,0,0,2.271,2.277,2.2721,2.2786,2.2733,2.2784,2.2749,2.2787,2.2807,2.2779,2.2888,2.289,2.2938,2.296,2.2998,2.3034,2.3052,0,0,2.2794,2.2781,2.2817,2.2774,2.2838,2.2779,2.285,2.2854,2.284,2.2874,2.2877,2.2943,2.2963,2.3,2.3146,2.316,0,0,0,2.285,2.2876,2.2889,2.2909,2.2913,2.2917,2.2907,2.2908,2.2936,2.2862,2.2967,2.2978,2.3,2.3016,2.3028,2.3044,2.2899,2.2899,2.2899,2.2993,2.2972,2.303,2.3012,2.3031,2.302,2.3033,2.3032,2.3006,2.3031,2.3041,2.3132,2.3153,2.3161,2.3179,2.306,2.306,2.3061,2.3061,2.3114,2.3147,2.311,2.3153,2.313,2.3166,2.3156,2.3137,2.3166,2.3124,2.3142,2.3096,2.3177,2.3191,2.3065,2.3064,2.3063,2.3063,2.3063,2.3204,2.3216,2.3215,2.324,2.3261,2.324,2.3269,2.3248,2.3228,2.3246,2.3252,2.3251,2.3245,2.325,2.3251,2.3251,2.3251,2.3251,2.3252,2.3297,2.3294,2.3322,2.3329,2.3337,2.3346,2.3334,2.3341,2.3344,2.3326,2.3326,2.3296,2.319,2.3162,2.3256,2.3256,2.3255,2.3254,2.3254,2.3424,2.3392,2.3434,2.3442,2.3447,2.3468,2.344,2.3457,2.346,2.3475,2.3441,2.3367,2.3351,2.3341,2.3318,2.3447,2.3447,2.3447,2.3447,2.3499,2.3489,2.3525,2.3539,2.3551,2.3529,2.3576,2.3566,2.3552,2.3552,2.353,2.3499,2.349,2.3479,2.3467,2.3445,2.3603,2.3603,2.3603,2.3575,2.3565,2.3608,2.3593,2.3595,2.3597,2.3639,2.3656,2.3633,2.3609,2.3551,2.3544,2.3493,2.3478,2.3451,2.3432,2.3392,0,0]}]]